[[{"header":{"parameterUnit":"m.s-1","parameterCategory":1,"la1":30.2991,"la2":30.254,"lo1":-89.0895,"lo2":-89.0444,"dy":0.0017,"dx":0.0017,"nx":28,"ny":28,"refTime":"2024-09-29T09:00:00:Z","depth":0,"parameterNumber":2,"parameterNumberName":"U-component_of_WINDS"},"data":[0,0,0,0,0,0,0,0,0,0,0,0,0,0,0,0,0,0,0,0,0,0,0,0,0,0,0,0,0,0,0,0,0,0,0,0,0,0,0,0,0,0,0,0,0,0,0,0,0,0,0,0,0,0,0,0,0,0,2.2892,2.2893,0,2.3015,2.3016,2.3017,2.2977,2.2974,2.2971,2.2969,2.3097,2.3103,2.3109,0,0,0,0,0,0,0,0,0,0,0,0,0,2.2623,2.2628,2.2892,2.2893,2.2895,2.3014,2.3016,2.3018,2.2977,2.2974,2.2971,2.2968,2.3095,2.3102,2.3109,0,0,0,0,0,0,0,0,0,0,0,0,0,2.2742,2.263,2.2891,2.2889,2.289,2.3014,2.3016,2.3018,2.2978,2.2974,2.297,2.2966,2.3093,2.3101,2.311,2.3245,0,0,2.3137,2.3141,0,0,0,0,0,0,0,0,2.2735,2.2752,2.2888,2.2889,2.289,2.2976,2.2968,2.3094,2.2979,2.2945,2.2969,2.2964,2.306,2.3071,2.3103,2.3251,2.3257,2.3138,2.3143,2.3147,2.315,0,0,0,0,0,0,0,2.2727,2.2747,2.294,2.289,2.2891,2.2882,2.2894,2.2992,2.3023,2.2947,2.2944,2.2959,2.306,2.3095,2.3106,2.3258,2.3138,2.3146,2.3151,2.3155,2.3522,2.3526,0,0,0,0,0,0,2.2718,2.274,2.2936,2.2944,2.2801,2.289,2.2904,2.2953,2.3022,2.3029,2.2963,2.2957,2.3082,2.3096,2.3111,2.3272,2.3147,2.3155,2.3161,2.3517,2.3523,2.3527,0,0,0,0,0,0,2.2712,2.2736,2.2931,2.2841,2.2865,2.2899,2.2954,2.2957,2.2992,2.3034,2.304,2.2992,2.3079,2.3098,2.3211,2.3276,2.3159,2.3167,2.3512,2.3519,2.3525,2.3597,0,0,0,0,0,0,2.2705,2.2734,2.2785,2.2843,2.287,2.303,2.2958,2.2963,2.3007,2.3001,2.3063,2.307,2.3078,2.3198,2.322,2.3286,2.3174,2.3506,2.3515,2.3523,2.3589,2.3606,2.362,0,0,0,0,0,2.2695,2.2802,2.2788,2.2812,2.2935,2.3034,2.305,2.3056,2.3012,2.3065,2.3091,2.3068,2.3265,2.321,2.3235,2.3304,2.3502,2.3513,2.3522,2.3583,2.3602,2.3619,0,0,0,0,0,0,2.2753,2.2809,2.2795,2.2923,2.2974,2.3027,2.3093,2.3077,2.3142,2.3134,2.3139,2.3153,2.327,2.3298,2.3236,2.3438,2.3377,2.3393,2.3415,2.3434,2.3449,2.344,2.3182,0,0,0,0,0,2.278,2.2855,2.29,2.3009,2.3035,2.306,2.3103,2.3103,2.3156,2.3178,2.3213,2.3266,2.334,2.3389,2.3459,2.3593,2.3606,2.3653,2.3668,2.368,2.3693,2.3765,2.3786,2.356,2.356,2.356,0,0,2.2838,2.2878,2.2925,2.3022,2.3061,2.3139,2.3078,2.3163,2.3221,2.3191,2.33,2.3327,2.3387,2.3511,2.3567,2.3538,2.3758,2.3693,2.3702,2.3709,2.3778,2.3799,2.3818,2.3567,2.3566,2.3565,0,0,2.2982,2.302,2.3114,2.3155,2.3214,2.323,2.3252,2.3308,2.3325,2.3434,2.3412,2.3481,2.3609,2.3652,2.369,2.3849,2.383,2.3872,2.3951,2.4021,2.4039,2.4055,2.4111,2.4131,2.3885,2.3885,2.3885,0,2.3047,2.3162,2.3165,2.3252,2.3294,2.3269,2.3365,2.3404,2.3484,2.3515,2.3481,2.3639,2.3677,2.381,2.3849,2.3881,2.3907,2.3865,2.4036,2.4052,2.4067,2.412,2.4142,2.389,2.3889,2.3889,2.3889,0,2.3238,2.3318,2.3387,2.3464,2.3515,2.3605,2.3622,2.3673,2.3668,2.3687,2.3798,2.3843,2.3921,2.3953,2.395,2.4086,2.4065,2.4034,2.3974,2.4093,2.4143,2.4164,2.3897,2.3895,2.3894,2.3892,0,0,2.3424,2.3499,2.3524,2.3558,2.3622,2.3684,2.3773,2.3849,2.3892,2.3948,2.4023,2.413,2.4101,2.4145,2.4146,2.4208,2.433,2.4169,2.417,2.4196,2.4481,2.4504,2.4528,2.4317,2.4321,2.4324,2.4476,0,2.3573,2.3729,2.3733,2.3876,2.3949,2.3926,2.4004,2.4051,2.4071,2.4137,2.4159,2.4234,2.419,2.4216,2.4276,2.4302,2.4387,2.4291,2.4387,2.439,2.4372,2.4554,2.4579,2.472,2.4496,2.4499,2.4501,0,2.3769,2.3829,2.3979,2.403,2.4061,2.4131,2.42,2.4263,2.4316,2.4326,2.4374,2.4366,2.4456,2.4393,2.4518,2.4452,2.4492,2.451,2.4516,2.4525,2.4453,2.4568,2.4766,2.4787,2.4533,2.453,2.4528,0,2.3888,2.4007,2.4111,2.4141,2.4204,2.4253,2.4282,2.4331,2.4376,2.4436,2.4465,2.4536,2.4574,2.4629,2.464,2.4593,2.4765,2.4703,2.4776,2.4776,2.4814,2.4811,2.502,2.4839,2.4839,2.4839,2.4838,0,2.4055,2.4147,2.4166,2.423,2.4333,2.4337,2.4438,2.4463,2.4506,2.4575,2.456,2.4625,2.4635,2.4703,2.4712,2.4813,2.4831,2.4842,2.4843,2.4843,2.4842,2.4869,2.4859,2.4844,2.4843,2.4842,2.4841,0,2.4206,2.4222,2.4334,2.4384,2.4398,2.4472,2.4514,2.4576,2.4593,2.468,2.4701,2.4728,2.4807,2.4823,2.4916,2.4922,2.5043,2.5035,2.5025,2.5024,2.5096,2.5089,2.5329,2.5361,2.516,2.5162,2.5164,0,2.4311,2.4381,2.4438,2.4482,2.4512,2.4584,2.4629,2.4636,2.4683,2.4748,2.4802,2.4878,2.4939,2.5066,2.5094,2.5165,2.5158,2.5237,2.5169,2.5166,2.5159,2.5154,2.5161,2.5251,2.5253,2.5255,2.5256,0,2.4496,2.45,2.4565,2.4633,2.4686,2.474,2.4792,2.4829,2.4842,2.4896,2.4975,2.5023,2.5117,2.5193,2.5263,2.5293,2.5277,2.5277,2.5298,2.5299,2.529,2.5295,2.506,2.5272,2.527,2.5269,2.5268,2.5268,2.4627,2.4688,2.4736,2.4809,2.4848,2.4895,2.4955,2.4979,2.5045,2.5121,2.5121,2.5208,2.5258,2.535,2.5384,2.5452,2.5427,2.5457,2.5465,2.5472,2.5478,2.5279,2.5465,2.5464,2.5464,2.5464,2.5463,0,2.481,2.484,2.4906,2.4978,2.5035,2.5013,2.5068,2.5118,2.5194,2.5241,2.5301,2.5392,2.5464,2.5498,2.557,2.5618,2.5612,2.5636,2.5633,2.564,2.5497,2.5471,2.564,2.564,2.5639,2.5639,2.5639,2.5639,2.4912,2.5013,2.5023,2.5143,2.5172,2.5256,2.5289,2.5333,2.537,2.5472,2.5532,2.5553,2.5594,2.5669,2.5735,2.5743,2.577,2.5797,2.5802,2.5668,2.565,2.5633,2.5609,2.5803,2.5804,2.5939,2.594,2.5941]},{"header":{"parameterUnit":"m.s-1","parameterCategory":1,"la1":30.2991,"la2":30.254,"lo1":-89.0895,"lo2":-89.0444,"dy":0.0017,"dx":0.0017,"nx":28,"ny":28,"refTime":"2024-09-29T09:00:00:Z","depth":0,"parameterNumber":3,"parameterNumberName":"V-component_of_WINDS"},"data":[0,0,0,0,0,0,0,0,0,0,0,0,0,0,0,0,0,0,0,0,0,0,0,0,0,0,0,0,0,0,0,0,0,0,0,0,0,0,0,0,0,0,0,0,0,0,0,0,0,0,0,0,0,0,0,0,0,0,-0.7215,-0.7215,0,-0.7172,-0.7172,-0.7171,-0.7167,-0.7168,-0.7168,-0.7169,-0.7122,-0.712,-0.7118,0,0,0,0,0,0,0,0,0,0,0,0,0,-0.7294,-0.7292,-0.7216,-0.7215,-0.7214,-0.7172,-0.7172,-0.7171,-0.7167,-0.7168,-0.7168,-0.7169,-0.7122,-0.712,-0.7118,0,0,0,0,0,0,0,0,0,0,0,0,0,-0.7256,-0.7292,-0.7216,-0.7207,-0.7206,-0.7172,-0.7172,-0.7171,-0.7167,-0.7168,-0.7168,-0.7169,-0.7123,-0.7121,-0.7118,-0.7088,0,0,-0.711,-0.7109,0,0,0,0,0,0,0,0,-0.7258,-0.7253,-0.7209,-0.7208,-0.7207,-0.7176,-0.7182,-0.7143,-0.7167,-0.7182,-0.7169,-0.7169,-0.7139,-0.7135,-0.7125,-0.7086,-0.7084,-0.711,-0.7109,-0.7107,-0.7107,0,0,0,0,0,0,0,-0.7261,-0.7255,-0.7198,-0.7209,-0.7207,-0.7206,-0.7201,-0.7175,-0.7157,-0.7181,-0.718,-0.7175,-0.7138,-0.7128,-0.7124,-0.7084,-0.711,-0.7108,-0.7106,-0.7105,-0.7019,-0.7018,0,0,0,0,0,0,-0.7265,-0.7257,-0.72,-0.7197,-0.7235,-0.7204,-0.7198,-0.7185,-0.7157,-0.7154,-0.7175,-0.7175,-0.7132,-0.7127,-0.7123,-0.7087,-0.7107,-0.7105,-0.7104,-0.702,-0.7019,-0.7018,0,0,0,0,0,0,-0.7267,-0.726,-0.7201,-0.7227,-0.7219,-0.7202,-0.7186,-0.7184,-0.7173,-0.7153,-0.7149,-0.7167,-0.7132,-0.7126,-0.7097,-0.7085,-0.7104,-0.7102,-0.7021,-0.7019,-0.7018,-0.7014,0,0,0,0,0,0,-0.7269,-0.7261,-0.7249,-0.7227,-0.7218,-0.7177,-0.7186,-0.7182,-0.7169,-0.7169,-0.7145,-0.7142,-0.7132,-0.7101,-0.7095,-0.7082,-0.71,-0.7022,-0.702,-0.7019,-0.7015,-0.7013,-0.7011,0,0,0,0,0,-0.7272,-0.7249,-0.7249,-0.7242,-0.7204,-0.7176,-0.7171,-0.7162,-0.7168,-0.7156,-0.7144,-0.7142,-0.7088,-0.7098,-0.7091,-0.7077,-0.7022,-0.702,-0.7019,-0.7016,-0.7013,-0.7011,0,0,0,0,0,0,-0.727,-0.7246,-0.7245,-0.7215,-0.7198,-0.7176,-0.7161,-0.7159,-0.7139,-0.714,-0.7129,-0.7123,-0.7095,-0.7083,-0.7095,-0.7047,-0.7056,-0.7052,-0.7056,-0.7053,-0.7051,-0.7054,-0.7098,0,0,0,0,0,-0.7266,-0.7246,-0.7226,-0.7201,-0.7193,-0.7178,-0.7166,-0.7161,-0.7142,-0.7134,-0.7119,-0.7101,-0.708,-0.7066,-0.7045,-0.7014,-0.7008,-0.7001,-0.6999,-0.6997,-0.6994,-0.6977,-0.6973,-0.7012,-0.7012,-0.7012,0,0,-0.7257,-0.7242,-0.723,-0.72,-0.7187,-0.7166,-0.7172,-0.715,-0.7135,-0.7131,-0.7103,-0.7091,-0.707,-0.704,-0.7026,-0.703,-0.6982,-0.6995,-0.6994,-0.6991,-0.6975,-0.6971,-0.6968,-0.7011,-0.7011,-0.7011,0,0,-0.7231,-0.7218,-0.7195,-0.7182,-0.7161,-0.7152,-0.7147,-0.7125,-0.7118,-0.709,-0.7087,-0.7069,-0.7032,-0.7017,-0.7005,-0.6975,-0.6973,-0.6969,-0.6957,-0.6941,-0.6938,-0.6935,-0.6924,-0.6921,-0.6966,-0.6966,-0.6966,0,-0.7222,-0.7192,-0.7184,-0.7162,-0.7149,-0.7147,-0.7124,-0.7111,-0.7084,-0.7076,-0.708,-0.7035,-0.7021,-0.6987,-0.698,-0.6971,-0.6964,-0.6971,-0.6939,-0.6936,-0.6933,-0.6923,-0.6919,-0.6966,-0.6966,-0.6966,-0.6966,0,-0.7183,-0.7162,-0.7146,-0.7122,-0.7108,-0.7085,-0.7074,-0.706,-0.7057,-0.7047,-0.7019,-0.7002,-0.6978,-0.697,-0.6965,-0.6936,-0.6939,-0.6941,-0.6949,-0.6929,-0.692,-0.6916,-0.6965,-0.6965,-0.6965,-0.6965,0,0,-0.7152,-0.7125,-0.7119,-0.7109,-0.7087,-0.707,-0.7048,-0.7026,-0.7014,-0.6997,-0.6978,-0.6948,-0.6951,-0.6937,-0.6931,-0.6917,-0.6895,-0.6921,-0.692,-0.6916,-0.6862,-0.686,-0.6855,-0.6894,-0.6893,-0.6892,-0.6864,0,-0.7123,-0.7085,-0.7078,-0.7044,-0.7025,-0.7023,-0.7004,-0.6988,-0.6979,-0.6961,-0.695,-0.6929,-0.6934,-0.6926,-0.6912,-0.69,-0.6883,-0.6902,-0.6876,-0.6875,-0.688,-0.685,-0.6847,-0.6821,-0.686,-0.6859,-0.6858,0,-0.7084,-0.7066,-0.7031,-0.7013,-0.7004,-0.6987,-0.6967,-0.695,-0.6932,-0.6927,-0.6912,-0.6908,-0.6886,-0.6895,-0.6864,-0.6877,-0.6866,-0.6859,-0.6857,-0.6854,-0.6865,-0.6845,-0.6812,-0.6808,-0.6852,-0.6853,-0.6853,0,-0.7065,-0.7032,-0.7007,-0.6998,-0.6976,-0.6964,-0.6955,-0.6938,-0.6925,-0.6907,-0.6899,-0.6879,-0.6867,-0.6851,-0.6842,-0.685,-0.6811,-0.682,-0.6806,-0.6806,-0.6797,-0.6797,-0.6761,-0.6791,-0.6791,-0.6791,-0.6791,0,-0.7033,-0.7011,-0.6999,-0.6983,-0.6959,-0.6952,-0.6928,-0.6918,-0.6904,-0.6886,-0.6883,-0.6867,-0.6856,-0.6838,-0.683,-0.6806,-0.68,-0.6795,-0.6793,-0.6795,-0.6796,-0.6787,-0.6788,-0.679,-0.679,-0.679,-0.679,0,-0.7007,-0.6998,-0.697,-0.6952,-0.6947,-0.6931,-0.6915,-0.69,-0.6892,-0.6869,-0.6864,-0.685,-0.6829,-0.6819,-0.6792,-0.6787,-0.6759,-0.6759,-0.6765,-0.6764,-0.6751,-0.6752,-0.6707,-0.6701,-0.6735,-0.6734,-0.6734,0,-0.6987,-0.697,-0.6951,-0.694,-0.693,-0.6911,-0.6899,-0.6891,-0.6878,-0.6858,-0.6845,-0.6824,-0.6807,-0.6773,-0.6761,-0.6741,-0.674,-0.6725,-0.6736,-0.6739,-0.6739,-0.674,-0.6739,-0.6723,-0.6723,-0.6722,-0.6722,0,-0.6952,-0.6949,-0.6931,-0.6913,-0.6898,-0.6883,-0.6868,-0.6858,-0.6848,-0.6834,-0.6813,-0.68,-0.6773,-0.6753,-0.6732,-0.6722,-0.672,-0.6719,-0.6715,-0.6716,-0.672,-0.6718,-0.6759,-0.672,-0.672,-0.672,-0.672,-0.672,-0.6928,-0.6914,-0.6898,-0.6879,-0.6868,-0.6854,-0.6839,-0.683,-0.6812,-0.679,-0.6787,-0.6765,-0.6749,-0.6721,-0.671,-0.6693,-0.6696,-0.6689,-0.6687,-0.6686,-0.6685,-0.6724,-0.6689,-0.6689,-0.6689,-0.6689,-0.6689,0,-0.6893,-0.6883,-0.6866,-0.6846,-0.6831,-0.6832,-0.6816,-0.6803,-0.6784,-0.6769,-0.6753,-0.6729,-0.671,-0.6696,-0.6676,-0.6665,-0.6664,-0.666,-0.666,-0.6658,-0.6683,-0.6689,-0.6661,-0.6661,-0.6661,-0.6661,-0.6661,-0.6661,-0.6873,-0.6849,-0.6844,-0.6814,-0.6805,-0.6783,-0.6774,-0.6762,-0.675,-0.6724,-0.6708,-0.67,-0.6686,-0.6665,-0.6647,-0.6644,-0.6637,-0.6633,-0.6629,-0.6653,-0.6656,-0.6659,-0.6664,-0.6631,-0.6631,-0.6605,-0.6605,-0.6605]}]]